Погода в Жангале

Казахстан     49°12′56″N   50°18′10″E
темп.,
°C
ветер,
м/с
пор.,
м/с
влажн.,
%
обл.,
%
осадки,
мм/ч
давл.,
гПа
погр.,
м
19 января, ср
ср1923:00−3ююв71491100 0.0 1018364
02:00−2ююв71591100 0.0 1019437
05:00−3ююв61291100 0.0 1019329
08:00−4ююв61392100 0.0 1019270
11:00−4юв61393100 0.0 1020337
14:00−2ююв61290100 0.0 1020479
17:00−2юв71292100 0.0 1020401
20:00−3юв61293100 0.0 1020342
20 января, чт
чт2023:00−3юв61194100 0.1 1020338
02:00−4вюв5994100 0.1 1020265
05:00−5вюв5996100 0.6 1019285
08:00−5вюв5896100 0.4 1019251
11:00−5вюв5795100 0.6 1019287
14:00−3вюв3491100 0.1 1019415
17:00−2в2396100 0.4 1019225
20:00−5всв2298100 0.1 101936
21 января, пт
пт2123:00−6всв2297100 0.1 101925
02:00−5св2297100 0.1 101958
05:00−5ссв2397100 0.4 101992
08:00−6св2297100 0.1 101938
11:00−5всв1195100 0.3 1020100
14:00−4вюв0089100 0.1 1020279
17:00−3юв2286100 0.1 1020449
20:00−4ю3389100 0.0 1021104
22 января, сб
сб2223:00−4ю3594100 0.1 1020187
02:00−5ю3593100 0.0 1021101
05:00−9ю469576 0.0 102175
08:00−8ююв4792100 0.0 1021104
11:00−6ююв599099 0.0 1022226
14:00−3ю588579 0.0 1023358
17:00−3юв4789100 0.0 1023239
20:00−5юв4995100 0.0 1024172
23 января, вс
вс2323:00−5вюв61194100 0.0 1024313
02:00−5вюв41094100 0.0 1024272
05:00−7вюв51189100 0.0 1025249
08:00−9вюв51186100 0.0 1025179
11:00−7вюв61284100 0.0 1026252
14:00−5вюв71382100 0.0 1026335
17:00−4вюв71384100 0.0 1026340
20:00−6в61485100 0.0 1026280